Weather History for KJVL - October, 2013

Change the Weather History Date:

Sunday, October 6, 2013

  Actual Average Record
Temperature  
Mean Temperature 52 °F -  
Max Temperature 60 °F 63 °F 89 °F (2007)
Min Temperature 44 °F 40 °F 28 °F (1988)
Degree Days  
Heating Degree Days 13    
Growing Degree Days 2 (Base 50)    
Moisture  
Dew Point 42 °F    
Average Humidity 71    
Maximum Humidity 93    
Minimum Humidity 48    
Precipitation  
Precipitation 0.00 in - - ()
Sea Level Pressure  
Sea Level Pressure 29.75 in    
Wind  
Wind Speed 6 mph (WSW)    
Max Wind Speed 12 mph    
Max Gust Speed -    
Visibility 10 miles    
Events Rain    
Averages and records for this station are not official NWS values.
T = Trace of Precipitation, MM = Missing Value Source: NWS Daily Summary

Daily Weather History Graph

Daily Weather History Graph

Search for Another Location

Airport or City:

Trip Planner

Search our weather history database for the weather conditions in past years. The results will help you decide how hot, cold, wet, or windy it might be!

Date:

Astronomy

Oct. 06, 2013 Rise Set
Actual Time 6:59 AM CDT 6:28 PM CDT
Civil Twilight 6:31 AM CDT 6:56 PM CDT
Nautical Twilight 5:58 AM CDT 7:29 PM CDT
Astronomical Twilight 5:25 AM CDT 8:01 PM CDT
Moon 8:46 AM CDT (10/6) 7:24 PM CDT (10/6)
Length of Visible Light 12h 25m
Length of Day
11h 29m
Waxing Crescent, 3% of the Moon is Illuminated
Oct 6
Waxing Crescent
Oct 11
First Quarter
Oct 18
Full
Oct 26
Last Quarter
Nov 3
New

Hourly Weather History & Observations

Time (CDT) Temp. Windchill Dew Point Humidity Pressure Visibility Wind Dir Wind Speed Gust Speed Precip Events Conditions
12:15 AM 60.8 °F - 44.6 °F 55% 29.78 in 10.0 mi WSW 8.1 mph - N/A   Overcast
12:35 AM 59.0 °F - 44.6 °F 59% 29.78 in 10.0 mi WSW 9.2 mph - N/A   Overcast
12:55 AM 59.0 °F - 42.8 °F 55% 29.78 in 10.0 mi West 8.1 mph - N/A   Overcast
1:15 AM 59.0 °F - 41.0 °F 51% 29.78 in 10.0 mi West 4.6 mph - N/A   Overcast
1:35 AM 57.2 °F - 42.8 °F 59% 29.78 in 10.0 mi West 4.6 mph - N/A   Overcast
1:55 AM 57.2 °F - 42.8 °F 59% 29.78 in 10.0 mi West 6.9 mph - N/A   Overcast
2:15 AM 55.4 °F - 42.8 °F 63% 29.76 in 10.0 mi West 4.6 mph - N/A   Overcast
2:35 AM 53.6 °F - 42.8 °F 67% 29.76 in 10.0 mi WNW 5.8 mph - N/A   Scattered Clouds
2:55 AM 53.6 °F - 42.8 °F 67% 29.76 in 10.0 mi West 6.9 mph - N/A   Scattered Clouds
3:15 AM 53.6 °F - 42.8 °F 67% 29.76 in 10.0 mi WSW 3.5 mph - N/A   Mostly Cloudy
3:35 AM 51.8 °F - 42.8 °F 71% 29.76 in 10.0 mi West 4.6 mph - N/A   Scattered Clouds
3:55 AM 51.8 °F - 42.8 °F 71% 29.76 in 10.0 mi West 3.5 mph - N/A   Mostly Cloudy
4:15 AM 51.8 °F - 42.8 °F 71% 29.76 in 10.0 mi Calm Calm - N/A   Scattered Clouds
4:35 AM 50.0 °F - 42.8 °F 76% 29.75 in 10.0 mi Calm Calm - N/A   Scattered Clouds
4:55 AM 50.0 °F - 42.8 °F 76% 29.75 in 10.0 mi WSW 3.5 mph - N/A   Mostly Cloudy
5:15 AM 50.0 °F - 41.0 °F 71% 29.75 in 10.0 mi SSE 3.5 mph - N/A   Scattered Clouds
5:35 AM 48.2 °F - 42.8 °F 82% 29.76 in 10.0 mi SW 4.6 mph - N/A   Scattered Clouds
5:45 AM 48.2 °F - 42.8 °F 82% 29.76 in 10.0 mi SW 5.8 mph - N/A   Clear
7:45 AM 46.4 °F - 41.0 °F 81% 29.75 in 10.0 mi Calm Calm - N/A   Clear
8:45 AM 51.8 °F - 42.8 °F 71% 29.74 in 10.0 mi Calm Calm - N/A   Clear
9:45 AM 55.4 °F - 39.2 °F 54% 29.73 in 10.0 mi SSW 6.9 mph - N/A   Clear
10:45 AM 57.2 °F - 39.2 °F 51% 29.73 in 10.0 mi SSW 6.9 mph - N/A   Scattered Clouds
11:45 AM 57.2 °F - 37.4 °F 48% 29.74 in 10.0 mi WSW 6.9 mph - N/A   Clear
1:45 PM 57.2 °F - 37.4 °F 48% 29.70 in 10.0 mi West 9.2 mph - N/A   Overcast
2:45 PM 55.4 °F - 37.4 °F 51% 29.70 in 10.0 mi West 8.1 mph - N/A   Overcast
3:45 PM 55.4 °F - 37.4 °F 51% 29.69 in 10.0 mi West 8.1 mph - N/A   Overcast
4:45 PM 53.6 °F - 37.4 °F 54% 29.71 in 10.0 mi SW 9.2 mph - N/A   Overcast
5:45 PM 48.2 °F - 39.2 °F 71% 29.74 in 6.0 mi SW 11.5 mph - N/A   Light Drizzle
6:45 PM 48.2 °F - 42.8 °F 82% 29.75 in 10.0 mi SW 5.8 mph - N/A   Light Drizzle
7:45 PM 46.4 °F 43.5 °F 42.8 °F 87% 29.76 in 7.0 mi WSW 5.8 mph - N/A Rain Light Rain
8:45 PM 46.4 °F 43.5 °F 42.8 °F 87% 29.75 in 7.0 mi West 5.8 mph - N/A Rain Light Rain
9:15 PM 46.4 °F 44.3 °F 42.8 °F 87% 29.76 in 10.0 mi WSW 4.6 mph - N/A   Mostly Cloudy
9:35 PM 44.6 °F 43.1 °F 42.8 °F 93% 29.76 in 10.0 mi WSW 3.5 mph - N/A Rain Light Rain
9:55 PM 46.4 °F 44.3 °F 42.8 °F 87% 29.76 in 10.0 mi SW 4.6 mph - N/A   Overcast
10:15 PM 46.4 °F 42.9 °F 42.8 °F 87% 29.76 in 10.0 mi WSW 6.9 mph - N/A   Overcast
10:35 PM 46.4 °F 43.5 °F 42.8 °F 87% 29.76 in 10.0 mi WSW 5.8 mph - N/A   Overcast
10:55 PM 46.4 °F 44.3 °F 42.8 °F 87% 29.76 in 10.0 mi WSW 4.6 mph - N/A   Overcast
11:15 PM 44.6 °F 42.2 °F 42.8 °F 93% 29.75 in 10.0 mi WSW 4.6 mph - N/A   Overcast
11:35 PM 44.6 °F 43.1 °F 42.8 °F 93% 29.75 in 10.0 mi WSW 3.5 mph - N/A   Overcast
11:55 PM 44.6 °F 42.2 °F 42.8 °F 93% 29.75 in 10.0 mi WSW 4.6 mph - N/A   Overcast